Location: Chippewa Lake
(41.0698°N, 81.9010°W)
Time: 21:14:45
(UTC+00:00)

Cosmos 1605 Rocket - Pass Details

Date: 09 May 2021
Orbit: 946 x 1005 km, 82.9° (Epoch: 16 June)

Event Time Altitude Azimuth Distance (km) Brightness Sun altitude
Rises 06:21:37 0° 354° (N) 3,664 8.0 -30.0°
Reaches altitude 10° 06:24:07 10° 356° (N) 2,722 7.1 -29.9°
Maximum altitude 06:30:22 74° 82° (E) 1,019 4.0 -29.5°
Enters shadow 06:30:46 72° 115° (ESE) 1,033 4.0 -29.5°
